This is the latest recevied weather packets stored in our database for station/object W8BS. If no packets are shown the sender has not sent any weather packets the latest 10 day(s).
| Time | Temp. | Humidity | Pressure | Rain* | Wind** | Luminosity | Snow |
|---|---|---|---|---|---|---|---|
| 1778028306 | 17.22° C | 63% | 1009.8 hPa | 0 mm | - | 0 W/m² | - |
| 1778028002 | 17.78° C | 61% | 1009.9 hPa | 0 mm | - | 0 W/m² | - |
| 1778027699 | 17.78° C | 61% | 1010.1 hPa | 0 mm | - | 0 W/m² | - |
| 1778027395 | 17.78° C | 60% | 1009.7 hPa | 0 mm | - | 0 W/m² | - |
| 1778027091 | 17.78° C | 61% | 1010.4 hPa | 0 mm | - | 0 W/m² | - |
| 1778026786 | 17.78° C | 59% | 1010.1 hPa | 0 mm | - | 0 W/m² | - |
| 1778026484 | 18.33° C | 59% | 1010 hPa | 0 mm | - | 2 W/m² | - |
| 1778026181 | 18.33° C | 60% | 1009.9 hPa | 0 mm | - | 1 W/m² | - |
| 1778025878 | 18.33° C | 57% | 1009.9 hPa | 0 mm | - | 3 W/m² | - |
| 1778025575 | 18.89° C | 56% | 1009.9 hPa | 0 mm | - | 6 W/m² | - |
| 1778025273 | 18.89° C | 56% | 1009.8 hPa | 0 mm | - | 7 W/m² | - |
| 1778024970 | 18.89° C | 56% | 1010 hPa | 0 mm | - | 12 W/m² | - |
| 1778024668 | 18.89° C | 54% | 1010 hPa | 0 mm | - | 16 W/m² | - |
| 1778024364 | 18.89° C | 54% | 1010.1 hPa | 0 mm | - | 19 W/m² | - |
| 1778024062 | 18.89° C | 54% | 1010 hPa | 0 mm | - | 23 W/m² | - |
| 1778023759 | 19.44° C | 54% | 1009.7 hPa | 0 mm | - | 25 W/m² | - |
| 1778023457 | 19.44° C | 53% | 1009.9 hPa | 0 mm | - | 26 W/m² | - |
| 1778023153 | 19.44° C | 52% | 1010 hPa | 0 mm | - | 26 W/m² | - |
| 1778022851 | 20° C | 52% | 1009.8 hPa | 0 mm | - | 26 W/m² | - |
| 1778022549 | 20° C | 51% | 1009.7 hPa | 0 mm | - | 29 W/m² | - |
| 1778022246 | 20° C | 50% | 1009.7 hPa | 0 mm | - | 31 W/m² | - |
| 1778021942 | 20.56° C | 49% | 1009.6 hPa | 0 mm | - | 33 W/m² | - |
| 1778021640 | 20.56° C | 49% | 1009.6 hPa | 0 mm | - | 41 W/m² | - |
| 1778021335 | 20.56° C | 49% | 1009.5 hPa | 0 mm | - | 49 W/m² | - |
| 1778021033 | 20.56° C | 49% | 1009.6 hPa | 0 mm | - | 52 W/m² | - |
* Rain latest hour (hover to see other rain measurements)
** Current wind speed in m/s (hover to see current wind gust speed)